Voltar ao catálogo

BREEZE-M DEB

TANK

AtivoHEO
NORAD 27821·DEBRIS·🇷🇺 Russia

Lançado Jun 6, 2003 de Baikonur Cosmodrome

Loading…

Próximas Passagens (próximas 24 horas)

TLE

AtualizadoSource: Space-Track

Época: Sep 14, 2026, 13:49 UTC

1 27821U 03024B   26257.57623580  .00015316  00000-0  10144-2 0  9995
2 27821  49.5015 350.2963 4683227 199.9431 133.1069  6.22319228480372

Acompanhe BREEZE-M DEB em tempo real com AllMySat

Download on the App Store